Appleton, MN

7:50 AM CST on February 08, 2016 (GMT -0600)
Appleton Municipal

Weather History for KAQP - April, 2014

Change the Weather History Date:

Wednesday, April 30, 2014

  Actual Average Record
Temperature  
Mean Temperature 42 °F -  
Max Temperature 46 °F 63 °F 105 °F (1997)
Min Temperature 37 °F 37 °F 28 °F (2004)
Degree Days  
Heating Degree Days 24    
Moisture  
Dew Point 37 °F    
Average Humidity 82    
Maximum Humidity 93    
Minimum Humidity 70    
Precipitation  
Precipitation 0.06 in - - ()
Sea Level Pressure  
Sea Level Pressure 29.87 in    
Wind  
Wind Speed 18 mph (NNW)    
Max Wind Speed 28 mph    
Max Gust Speed 34 mph    
Visibility 10 miles    
Events Rain    
Averages and records for this station are not official NWS values.
T = Trace of Precipitation, MM = Missing Value Source: NWS Daily Summary

Daily Weather History Graph

Daily Weather History Graph

Search for Another Location

Airport or City:

Trip Planner

Search our weather history database for the weather conditions in past years. The results will help you decide how hot, cold, wet, or windy it might be!

Date:

Astronomy

Apr. 30, 2014 Rise Set
Actual Time 6:14 AM CDT 8:28 PM CDT
Civil Twilight 5:41 AM CDT 9:01 PM CDT
Nautical Twilight 5:01 AM CDT 9:41 PM CDT
Astronomical Twilight 4:16 AM CDT 10:27 PM CDT
Moon 7:14 AM CDT (4/30) 10:11 PM CDT (4/30)
Length of Visible Light 15h 19m
Length of Day
14h 14m
New Moon, 2% of the Moon is Illuminated
Apr 30
New Moon
May 6
First Quarter
May 14
Full
May 21
Last Quarter
May 28
New

Hourly Weather History & Observations

Time (CDT) Temp. Windchill Dew Point Humidity Pressure Visibility Wind Dir Wind Speed Gust Speed Precip Events Conditions
12:13 AM 42.8 °F 37.5 °F 35.6 °F 76% 29.86 in 10.0 mi North 9.2 mph - N/A   Overcast
12:34 AM 42.8 °F 36.6 °F 35.6 °F 76% 29.86 in 10.0 mi North 11.5 mph - N/A   Mostly Cloudy
12:54 AM 42.8 °F 35.4 °F 33.8 °F 70% 29.86 in 10.0 mi North 15.0 mph 19.6 mph N/A   Mostly Cloudy
1:13 AM 42.8 °F 35.4 °F 33.8 °F 70% 29.86 in 10.0 mi North 15.0 mph - N/A   Overcast
1:34 AM 42.8 °F 34.8 °F 33.8 °F 70% 29.86 in 10.0 mi NNE 17.3 mph 21.9 mph N/A   Overcast
1:54 AM 42.8 °F 35.1 °F 35.6 °F 76% 29.86 in 10.0 mi North 16.1 mph - N/A   Overcast
2:14 AM 41.0 °F 32.8 °F 35.6 °F 81% 29.86 in 10.0 mi North 16.1 mph - N/A   Drizzle
2:34 AM 39.2 °F 33.0 °F 35.6 °F 87% 29.86 in 10.0 mi North 9.2 mph - N/A   Drizzle
2:54 AM 39.2 °F 31.6 °F 37.4 °F 93% 29.86 in 10.0 mi North 12.7 mph 16.1 mph 0.01 in   Drizzle
3:13 AM 39.2 °F 30.5 °F 37.4 °F 93% 29.86 in 10.0 mi North 16.1 mph 19.6 mph N/A Rain Light Rain
3:34 AM 39.2 °F 32.5 °F 35.6 °F 87% 29.86 in 10.0 mi North 10.4 mph - 0.01 in Rain Light Rain
3:54 AM 39.2 °F 30.8 °F 35.6 °F 87% 29.86 in 10.0 mi North 15.0 mph - 0.02 in   Drizzle
4:15 AM 39.2 °F 31.2 °F 35.6 °F 87% 29.86 in 7.0 mi North 13.8 mph - N/A   Drizzle
4:34 AM 39.2 °F 31.2 °F 35.6 °F 87% 29.86 in 7.0 mi North 13.8 mph - N/A Rain Rain
4:54 AM 39.2 °F 31.6 °F 35.6 °F 87% 29.86 in 10.0 mi North 12.7 mph - N/A Rain Rain
5:15 AM 39.2 °F 31.6 °F 35.6 °F 87% 29.86 in 10.0 mi North 12.7 mph 19.6 mph 0.01 in Rain Light Rain
5:34 AM 39.2 °F 30.8 °F 35.6 °F 87% 29.86 in 10.0 mi NNW 15.0 mph 18.4 mph 0.01 in Rain Light Rain
5:54 AM 39.2 °F 30.2 °F 35.6 °F 87% 29.87 in 10.0 mi North 17.3 mph - 0.02 in   Drizzle
6:15 AM 39.2 °F 29.6 °F 35.6 °F 87% 29.87 in 10.0 mi North 19.6 mph - N/A Rain Light Rain
6:33 AM 37.4 °F 28.5 °F 35.6 °F 93% 29.87 in 10.0 mi NNW 15.0 mph - N/A Rain Rain
6:55 AM 37.4 °F 27.5 °F 35.6 °F 93% 29.87 in 7.0 mi NNW 18.4 mph 21.9 mph N/A Rain Light Rain
7:15 AM 37.4 °F 27.5 °F 35.6 °F 93% 29.87 in 10.0 mi NNW 18.4 mph 25.3 mph 0.01 in Rain Light Rain
7:34 AM 37.4 °F 26.9 °F 35.6 °F 93% 29.87 in 10.0 mi North 20.7 mph 25.3 mph 0.01 in   Drizzle
7:55 AM 39.2 °F 29.0 °F 35.6 °F 87% 29.87 in 10.0 mi NNW 21.9 mph - 0.01 in   Overcast
8:15 AM 39.2 °F 29.0 °F 35.6 °F 87% 29.87 in 10.0 mi NNW 21.9 mph 28.8 mph N/A   Overcast
8:33 AM 39.2 °F 29.6 °F 35.6 °F 87% 29.87 in 10.0 mi NNW 19.6 mph 26.5 mph N/A   Light Drizzle
8:54 AM 39.2 °F 28.7 °F 35.6 °F 87% 29.87 in 10.0 mi NNW 23.0 mph 27.6 mph N/A   Light Drizzle
9:13 AM 39.2 °F 29.3 °F 37.4 °F 93% 29.87 in 10.0 mi North 20.7 mph 29.9 mph N/A   Light Drizzle
9:33 AM 39.2 °F 28.5 °F 37.4 °F 93% 29.87 in 10.0 mi NNW 24.2 mph 29.9 mph N/A   Light Drizzle
10:14 AM 39.2 °F 28.3 °F 35.6 °F 87% 29.87 in 10.0 mi North 25.3 mph 32.2 mph N/A   Light Drizzle
10:35 AM 41.0 °F 30.9 °F 37.4 °F 87% 29.87 in 10.0 mi North 24.2 mph 29.9 mph N/A   Overcast
10:54 AM 41.0 °F 30.7 °F 37.4 °F 87% 29.87 in 10.0 mi NNW 25.3 mph 29.9 mph N/A   Overcast
11:14 AM 41.0 °F 30.2 °F 37.4 °F 87% 29.87 in 10.0 mi North 27.6 mph 31.1 mph N/A   Overcast
11:35 AM 42.8 °F 33.3 °F 37.4 °F 81% 29.87 in 10.0 mi NNW 24.2 mph - N/A   Overcast
11:53 AM 44.6 °F 35.3 °F 37.4 °F 76% 29.87 in 10.0 mi North 26.5 mph 29.9 mph N/A   Overcast
12:14 PM 44.6 °F 35.3 °F 37.4 °F 76% 29.87 in 10.0 mi North 26.5 mph 33.4 mph N/A   Overcast
12:34 PM 44.6 °F 35.1 °F 37.4 °F 76% 29.86 in 10.0 mi NNW 27.6 mph 31.1 mph N/A   Overcast
12:54 PM 44.6 °F 35.5 °F 37.4 °F 76% 29.86 in 10.0 mi NNW 25.3 mph 34.5 mph N/A   Overcast
1:13 PM 46.4 °F 38.3 °F 37.4 °F 71% 29.86 in 10.0 mi NNW 23.0 mph 28.8 mph N/A   Overcast
1:34 PM 46.4 °F 38.5 °F 37.4 °F 71% 29.86 in 10.0 mi NNW 21.9 mph 32.2 mph N/A   Overcast
1:54 PM 46.4 °F 37.7 °F 37.4 °F 71% 29.86 in 10.0 mi NNW 26.5 mph 29.9 mph N/A   Overcast
2:13 PM 46.4 °F 38.1 °F 37.4 °F 71% 29.87 in 10.0 mi NNW 24.2 mph 31.1 mph N/A   Overcast
2:34 PM 46.4 °F 38.1 °F 37.4 °F 71% 29.87 in 10.0 mi NNW 24.2 mph 28.8 mph N/A   Overcast
2:54 PM 44.6 °F 36.1 °F 37.4 °F 76% 29.87 in 10.0 mi NNW 21.9 mph 29.9 mph N/A   Overcast
3:13 PM 44.6 °F 36.1 °F 37.4 °F 76% 29.88 in 10.0 mi NNW 21.9 mph - N/A   Overcast
3:34 PM 44.6 °F 36.4 °F 37.4 °F 76% 29.88 in 10.0 mi NNW 20.7 mph - N/A   Overcast
3:55 PM 44.6 °F 36.4 °F 37.4 °F 76% 29.87 in 10.0 mi NNW 20.7 mph 26.5 mph N/A   Overcast
4:14 PM 44.6 °F 36.1 °F 37.4 °F 76% 29.87 in 10.0 mi NNW 21.9 mph 29.9 mph N/A   Overcast
4:34 PM 44.6 °F 36.1 °F 37.4 °F 76% 29.87 in 10.0 mi NW 21.9 mph 25.3 mph N/A   Overcast
4:53 PM 44.6 °F 36.4 °F 37.4 °F 76% 29.87 in 10.0 mi NNW 20.7 mph 27.6 mph N/A   Overcast
5:14 PM 44.6 °F 35.9 °F 37.4 °F 76% 29.87 in 10.0 mi NNW 23.0 mph 31.1 mph N/A   Overcast
5:35 PM 44.6 °F 35.7 °F 37.4 °F 76% 29.88 in 10.0 mi NNW 24.2 mph 29.9 mph N/A   Overcast
5:54 PM 44.6 °F 35.7 °F 37.4 °F 76% 29.88 in 10.0 mi NNW 24.2 mph 28.8 mph N/A   Overcast
6:15 PM 42.8 °F 33.5 °F 37.4 °F 81% 29.88 in 10.0 mi NNW 23.0 mph 28.8 mph N/A   Overcast
6:34 PM 42.8 °F 34.0 °F 37.4 °F 81% 29.88 in 10.0 mi NNW 20.7 mph 28.8 mph N/A   Overcast
6:53 PM 42.8 °F 33.3 °F 37.4 °F 81% 29.88 in 10.0 mi NNW 24.2 mph 29.9 mph N/A   Overcast
7:14 PM 42.8 °F 34.3 °F 37.4 °F 81% 29.88 in 10.0 mi NNW 19.6 mph 26.5 mph N/A   Overcast
7:34 PM 42.8 °F 33.3 °F 37.4 °F 81% 29.88 in 10.0 mi NNW 24.2 mph 28.8 mph N/A   Overcast
8:13 PM 42.8 °F 33.8 °F 37.4 °F 81% 29.88 in 10.0 mi NNW 21.9 mph 27.6 mph N/A   Overcast
8:33 PM 42.8 °F 33.1 °F 37.4 °F 81% 29.88 in 10.0 mi NNW 25.3 mph 31.1 mph N/A   Overcast
8:54 PM 41.0 °F 30.9 °F 37.4 °F 87% 29.88 in 7.0 mi NNW 24.2 mph 31.1 mph N/A   Overcast
9:15 PM 41.0 °F 31.6 °F 37.4 °F 87% 29.88 in 10.0 mi NNW 20.7 mph 29.9 mph N/A   Overcast
9:34 PM 41.0 °F 31.6 °F 37.4 °F 87% 29.88 in 10.0 mi NNW 20.7 mph 26.5 mph N/A   Light Drizzle
9:53 PM 41.0 °F 31.6 °F 37.4 °F 87% 29.88 in 10.0 mi NNW 20.7 mph 27.6 mph N/A   Overcast
10:14 PM 41.0 °F 31.9 °F 37.4 °F 87% 29.88 in 10.0 mi NNW 19.6 mph 23.0 mph N/A   Light Drizzle
10:34 PM 41.0 °F 32.5 °F 37.4 °F 87% 29.88 in 10.0 mi NNW 17.3 mph - N/A Rain Light Rain
10:54 PM 41.0 °F 31.9 °F 37.4 °F 87% 29.87 in 10.0 mi NNW 19.6 mph 27.6 mph N/A Rain Light Rain
11:14 PM 41.0 °F 31.9 °F 37.4 °F 87% 29.88 in 10.0 mi NNW 19.6 mph 27.6 mph N/A   Light Drizzle
11:33 PM 41.0 °F 32.5 °F 37.4 °F 87% 29.87 in 10.0 mi NNW 17.3 mph 25.3 mph N/A   Overcast